Regional Weather Roundup
Issued by NWS

Home | Current Version | Previous Version | Text Only | Print | Product List | Glossary On
Versions: 1 2 3 4 5 6 7 8 9 10 11 12 13 14 15 16 17 18 19 20 21 22 23 24 25 26 27 28 29 30 31 32 33 34 35 36 37 38 39 40 41 42 43 44 45 46 47 48 49 50
907
ASUS44 KLIX 192205
RWRLA
LOUISIANA WEATHER ROUNDUP
NATIONAL WEATHER SERVICE NEW ORLEANS LA
500 PM CDT SUN OCT 19 2014

NOTE: "FAIR" INDICATES FEW OR NO CLOUDS BELOW 12,000 FEET WITH NO
      SIGNIFICANT WEATHER AND/OR OBSTRUCTIONS TO VISIBILITY.
      SKY/WX - SKY CONDITION AND SIGNIFICANT WEATHER.
      TMP - AIR TEMPERATURE.    DP   - DEWPOINT TEMPERATURE.
      RH  - RELATIVE HUMIDITY.  PRES - PRESSURE.
      HX  - HEAT INDEX.         WCI  - WIND CHILL INDEX.

*  THESE STATIONS ARE NOT NWS OR FAA STATIONS AND ARE NOT UNDER
   NWS QUALITY CONTROL.

LAZ040-048-061>063-065-066-069-192300-
SOUTHEAST LOUISIANA

CITY           SKY/WX    TMP DP  RH WIND       PRES   REMARKS
N.O. AUDUBON     N/A     73  58  59 MISG        N/A
N.O. INTL ARPT MOSUNNY   75  53  46 NE9       30.04F
N.O. LAKEFRONT SUNNY     75  55  49 E3        30.05F
N.O. DOWNTOWN* FAIR      73  52  46 CALM      30.05F
SLIDELL        SUNNY     76  54  46 NE5       30.04F
BATON ROUGE    SUNNY     76  54  46 N6        30.04F
BOOTHVILLE     SUNNY     74  65  73 NE9       30.04F
BELLE CHASSE   MOSUNNY   74  57  55 NE8       30.04S
BOGALUSA*        N/A     76  45  33 CALM      30.07S
NEW ROADS*     FAIR      75  54  48 N3        30.05S
GONZALES*      FAIR      76  57  51 E3        30.04S
HAMMOND*       SUNNY     77  50  38 E3        30.06F
HOUMA*         MOSUNNY   75  63  64 E6        30.03F
PORT FOURCHON* PTCLDY    75  66  73 NE12G17   30.05F

$$

LAZ041-044-053-054-192300-
SOUTHWEST LOUISIANA

CITY           SKY/WX    TMP DP  RH WIND       PRES   REMARKS
LAKE CHARLES   SUNNY     78  58  49 E7        30.03F
LAFAYETTE      SUNNY     78  57  48 N8        30.04S
PATTERSON      NOT AVBL
SALT POINT       N/A     80  62  54 N3        30.02S
NEW IBERIA     SUNNY     79  59  50 NE6       30.04S
CHENAULT AIRPK NOT AVBL

$$

LAZ027-028-192300-
CENTRAL LOUISIANA

CITY           SKY/WX    TMP DP  RH WIND       PRES   REMARKS
FORT POLK      SUNNY     73  54  49 N7        30.06S
ALEXANDRIA INT SUNNY     74  48  39 NE6       30.05F
ALEXANDRIA     SUNNY     75  51  43 E3        30.07S

$$

LAZ001-002-192300-
NORTHWEST LOUISIANA

CITY           SKY/WX    TMP DP  RH WIND       PRES   REMARKS
SHREVEPORT     SUNNY     73  49  42 E6        30.07F
BARKSDALE AFB  SUNNY     73  47  38 VRB1      30.09S
DTN SHREVEPORT SUNNY     73  46  38 CALM      30.08F

$$

LAZ014-016-192300-
NORTHEAST LOUISIANA

CITY           SKY/WX    TMP DP  RH WIND       PRES   REMARKS
MONROE         SUNNY     71  47  42 NE5       30.10F
TALLULAH       SUNNY     72  44  36 NE6       30.09S

$$




USA.gov is the U.S. government's official web portal to all federal, state and local government web resources and services.